CZ-2F R/B (46390 NORAD) Tracking and Keplerian Element Data

This shows tracking and keplerian element data for the satellite.

Feedback or suggestion? Click here.




ElementValue
Catalog46390
NameCZ-2F R/B
Epoch Orbit1423
Epoch Day338.33536286
Epoch Year2020
RAAN305.8358
Inclination50.2036
Eccentricity0.0012088
Argument of Perigee336.0204
Mean Anonmoly24.0214
Mean Motion15.82030624
Decay Rate0.00050568
L11 46390U 20063B 20338.33536286 .00050568 00000-0 24275-3 0 9992
L22 46390 50.2036 305.8358 0012088 336.0204 24.0214 15.82030624 14233

Live tracking and technical data element details for CZ-2F R/B (NORAD 46390). CZ-2F R/B can be tracked NOW for your location showing map with azimuth and elevation plus other details from your city location.

Track the satellite on the map from your city or location and see movement details for azimuth, elevation, latitude, longitude, range, height, and movement on the map or in text.







IsCatalogInMostPopularTable: catalog: 46390, numindb: 28
Update: records affected: 1



GetName: 46390 CZ-2F R/B

Hit Count: updated at: Sun, 06 Dec 2020 01:38:46 GMT